Home   Weather   Wilhelmshaven   Past weeks

Flag for Germany Past Weather in Wilhelmshaven, Lower Saxony, Germany — Yesterday and Last 2 Weeks

Now
59 °F

Scattered clouds.


Feels Like: 58 °F
Forecast: 53 / 66 °F
Wind: 6 mph from Southwest

Location: Wittmundhaven

Current Time: Aug 21, 2017 at 10:44:13 am

Latest Report: Aug 21, 2017 at 9:20 am


Visibility: N/A

Pressure: 30.18 "Hg

Humidity: 88%

Dew Point: 55 °F

Location of WilhelmshavenLocation

Past Weather in Wilhelmshaven — Graph

°F

Wilhelmshaven Temperature Yesterday

Maximum temperature yesterday: 59 °F (at 9:32 am)
Minimum temperature yesterday: 54 °F (at 2:20 am)
Average temperature yesterday: 57 °F

High & Low Weather Summary for the Past Weeks

 TemperatureHumidityPressure
High77 °F (Aug 15, 4:20 pm)100% (Aug 12, 10:20 am)30.21 "Hg (Aug 12, 10:20 am)
Low46 °F (Aug 14, 3:20 am)41% (Aug 7, 2:20 pm)29.74 "Hg (Aug 9, 12:20 am)
Average61 °F80%30.00 "Hg
* Reported Aug 6 9:20 am — Aug 21 9:20 am, Wilhelmshaven. Weather by CustomWeather, © 2017

Note: Actual official high and low records may vary slightly from our data, if they occured in-between our weather recording intervals... More about our weather records

Advertising

Wilhelmshaven Weather History for the Previous 24 Hours

Scroll right to see more
 ConditionsComfort  
Time TempWeatherWind HumidityBarometerVisibility
9:20 am
Mon, Aug 21
59 °FScattered clouds.6 mph88%30.18 "HgN/A
8:20 am57 °FScattered clouds.5 mph88%30.15 "HgN/A
7:20 am54 °FScattered clouds.3 mph94%30.15 "HgN/A
6:20 am54 °FScattered clouds.5 mph94%30.15 "HgN/A
5:20 am55 °FPassing clouds.6 mph88%30.15 "HgN/A
4:20 am55 °FCool.6 mph88%30.15 "Hg4 mi
3:20 am54 °FCool.5 mph94%30.15 "Hg4 mi
2:20 am55 °FCool.6 mph94%30.15 "Hg4 mi
1:20 am55 °FCool.5 mph94%30.15 "Hg4 mi
12:20 am55 °FCool.6 mph94%30.15 "Hg4 mi
11:20 pm
Sun, Aug 20
55 °FCool.6 mph94%30.15 "Hg3 mi
10:20 pm57 °FCool.7 mph88%30.15 "Hg3 mi
9:20 pm57 °FCool.7 mph88%30.15 "Hg3 mi
8:20 pm59 °FCool.12 mph82%30.12 "Hg4 mi
7:20 pm59 °FCool.13 mph88%30.12 "Hg4 mi
6:20 pm57 °FCool.10 mph94%30.12 "Hg2 mi
5:20 pm55 °FCool.12 mph94%30.12 "Hg3 mi
4:20 pm57 °FCool.13 mph88%30.12 "Hg3 mi
3:20 pm57 °FRain showers. Fog.6 mph94%30.09 "Hg3 mi
2:20 pm57 °FRain showers. Partly sunny.6 mph94%30.09 "Hg4 mi
1:20 pm57 °FRain showers. Fog.8 mph94%30.09 "Hg3 mi
12:20 pm57 °FRain showers. Fog.8 mph94%30.09 "Hg2 mi
11:38 am57 °FRain showers. Fog.10 mph94%30.07 "Hg3 mi
11:20 am59 °FSprinkles. Fog.10 mph88%30.07 "Hg3 mi
10:48 am59 °FSprinkles. Broken clouds.12 mph88%30.07 "Hg4 mi
10:20 am59 °FSprinkles. Partly sunny.13 mph88%30.04 "Hg5 mi
Weather by CustomWeather, © 2017

See weather overviewHow to use our weather pages